Weather History for Kirksville, MO

Change the Weather History Date:

Thursday, April 18, 2013

  Actual Average Record
Temperature  
Mean Temperature 47 °F 53 °F  
Max Temperature 59 °F 64 °F 85 °F (1925)
Min Temperature 35 °F 42 °F 21 °F (1983)
Degree Days  
Heating Degree Days 18 13  
Month to date heating degree days 308 276  
Since 1 July heating degree days 5670 5563  
Cooling Degree Days 0 0  
Month to date cooling degree days 3 0  
Year to date cooling degree days 3 0  
Moisture  
Dew Point 48 °F    
Average Humidity 88    
Maximum Humidity 100    
Minimum Humidity 75    
Precipitation  
Precipitation 0.69 in 0.16 in 1.65 in (1970)
Month to date precipitation 6.49 1.89  
Year to date precipitation 15.28 7.24  
Sea Level Pressure  
Sea Level Pressure 29.62 in    
Wind  
Wind Speed 12 mph (SE)    
Max Wind Speed 25 mph    
Max Gust Speed 33 mph    
Visibility 6 miles    
Events Fog , Rain , Thunderstorm    
T = Trace of Precipitation, MM = Missing Value Source: NWS Daily Summary

Daily Weather History Graph

Daily Weather History Graph

Search for Another Location

Airport:

Trip Planner

Search our weather history database for the weather conditions in past years. The results will help you decide how hot, cold, wet, or windy it might be!

Date:

Astronomy

Apr. 18, 2013 Rise Set
Actual Time 6:27 AM CDT 7:52 PM CDT
Civil Twilight 5:59 AM CDT 8:20 PM CDT
Nautical Twilight 5:25 AM CDT 8:54 PM CDT
Astronomical Twilight 4:49 AM CDT 9:30 PM CDT
Moon 12:39 PM CDT (4/18) 2:07 AM CDT (4/18)
Length of Visible Light 14h 21m
Length of Day
13h 24m
First Quarter, 52% of the Moon is Illuminated
Apr 18
First Quarter
Apr 25
Full
May 2
Last Quarter
May 9
New
May 17
First Quarter

Hourly Weather History & Observations

Time (CDT) Temp. Windchill Dew Point Humidity Pressure Visibility Wind Dir Wind Speed Gust Speed Precip Events Conditions
12:11 AM 55.4 °F - 55.4 °F 100% 29.70 in 1.8 mi Variable 4.6 mph 19.6 mph 0.12 in Rain , Thunderstorm Heavy Thunderstorms and Rain
12:17 AM 55.4 °F - 55.4 °F 100% 29.74 in 0.8 mi Calm Calm - 0.24 in Rain , Thunderstorm Heavy Thunderstorms and Rain
12:25 AM 55.4 °F - 55.4 °F 100% 29.67 in 0.5 mi NE 12.7 mph 16.1 mph 0.55 in Fog , Rain , Thunderstorm Heavy Thunderstorms and Rain
12:27 AM 55.4 °F - 55.4 °F 100% 29.66 in 1.0 mi ENE 10.4 mph 16.1 mph 0.57 in Rain , Thunderstorm Heavy Thunderstorms and Rain
12:31 AM 55.4 °F - 55.4 °F 100% 29.64 in 2.0 mi ENE 13.8 mph - 0.59 in Rain , Thunderstorm Thunderstorms and Rain
12:35 AM 55.4 °F - 55.4 °F 100% 29.64 in 3.0 mi ENE 17.3 mph 23.0 mph 0.60 in Rain , Thunderstorm Thunderstorms and Rain
12:41 AM 55.4 °F - 55.4 °F 100% 29.64 in 5.0 mi ENE 16.1 mph - 0.61 in Rain , Thunderstorm Light Rain
12:55 AM 55.9 °F - 55.9 °F 100% 29.64 in 9.0 mi ENE 15.0 mph 21.9 mph 0.62 in Rain Light Rain
1:02 AM 55.4 °F - 55.4 °F 100% 29.64 in 7.0 mi East 12.7 mph 21.9 mph 0.01 in Rain , Thunderstorm Light Rain
1:18 AM 55.4 °F - 55.4 °F 100% 29.64 in 4.0 mi East 11.5 mph - 0.08 in Rain , Thunderstorm Thunderstorms and Rain
1:38 AM 55.4 °F - 55.4 °F 100% 29.67 in 2.0 mi NE 4.6 mph - 0.21 in Rain , Thunderstorm Light Thunderstorms and Rain
1:45 AM 55.4 °F - 55.4 °F 100% 29.66 in 1.8 mi Variable 5.8 mph - 0.31 in Rain , Thunderstorm Rain
1:48 AM 55.4 °F - 55.4 °F 100% 29.65 in 3.0 mi NE 10.4 mph - 0.32 in Rain , Thunderstorm Rain
1:55 AM 55.9 °F - 55.9 °F 100% 29.65 in 3.0 mi East 5.8 mph - 0.34 in Rain , Thunderstorm Rain
2:03 AM 57.2 °F - 57.2 °F 100% 29.62 in 6.0 mi East 13.8 mph 20.7 mph 0.02 in Rain Light Rain
2:16 AM 57.2 °F - 57.2 °F 100% 29.59 in 10.0 mi East 11.5 mph - 0.03 in Rain Light Rain
2:55 AM 57.0 °F - 57.0 °F 100% 29.60 in 10.0 mi East 8.1 mph - 0.06 in Rain Light Rain
3:03 AM 55.4 °F - 55.4 °F 100% 29.59 in 10.0 mi East 8.1 mph - 0.00 in   Overcast
3:22 AM 55.4 °F - 55.4 °F 100% 29.58 in 5.0 mi ESE 9.2 mph - 0.03 in Rain Rain
3:32 AM 55.4 °F - 55.4 °F 100% 29.62 in 7.0 mi ESE 9.2 mph - 0.05 in Rain Light Rain
3:55 AM 55.9 °F - 55.9 °F 100% 29.60 in 5.0 mi ESE 9.2 mph - 0.13 in Rain Light Rain
4:07 AM 55.4 °F - 55.4 °F 100% 29.60 in 7.0 mi Variable 4.6 mph - 0.01 in Rain Light Rain
4:51 AM 55.4 °F - 55.4 °F 100% 29.57 in 7.0 mi East 6.9 mph - 0.05 in Rain Light Rain
4:55 AM 55.9 °F - 55.9 °F 100% 29.59 in 8.0 mi East 5.8 mph - 0.06 in Rain Light Rain
5:36 AM 55.4 °F - 55.4 °F 100% 29.54 in 10.0 mi ESE 10.4 mph - 0.03 in Rain Light Rain
5:55 AM 55.0 °F - 55.0 °F 100% 29.56 in 7.0 mi ESE 9.2 mph - 0.05 in Rain Light Rain
6:16 AM 55.4 °F - 55.4 °F 100% 29.46 in 5.0 mi East 15.0 mph - 0.03 in Rain Light Rain
6:55 AM 55.9 °F - 55.9 °F 100% 29.55 in 10.0 mi NNE 3.5 mph - 0.03 in   Overcast
7:55 AM 55.9 °F - 55.9 °F 100% 29.59 in 3.0 mi SE 3.5 mph - 0.00 in   Overcast
7:58 AM 55.4 °F - 55.4 °F 100% 29.58 in 1.5 mi Calm Calm - N/A   Overcast
8:03 AM 55.4 °F - 55.4 °F 100% 29.58 in 0.5 mi Calm Calm - N/A Fog Fog
8:13 AM 55.4 °F - 55.4 °F 100% 29.56 in 0.2 mi East 4.6 mph - 0.01 in Fog , Rain Light Rain
8:55 AM 55.9 °F - 55.9 °F 100% 29.50 in 0.2 mi East 8.1 mph - 0.02 in Fog , Rain Light Rain
9:19 AM 55.4 °F - - N/A% 29.53 in 1.0 mi ESE 8.1 mph - 0.00 in Rain Light Rain
9:27 AM 55.4 °F - - N/A% 29.54 in 3.0 mi SE 10.4 mph - N/A   Overcast
9:55 AM 55.9 °F - - N/A% 29.52 in 10.0 mi SE 8.1 mph - 0.00 in   Overcast
10:15 AM 57.2 °F - - N/A% 29.50 in 10.0 mi SSE 5.8 mph - N/A   Overcast
10:55 AM 57.9 °F - - N/A% 29.49 in 10.0 mi South 9.2 mph - N/A   Overcast
11:13 AM 57.2 °F - - N/A% 29.49 in 1.8 mi SW 13.8 mph - 0.00 in Rain Light Rain
11:52 AM 46.4 °F 39.2 °F 46.4 °F 100% 29.52 in 1.5 mi WSW 18.4 mph 27.6 mph 0.01 in Rain Light Rain
11:55 AM 46.9 °F - 46.0 °F 97% 29.54 in 1.8 mi WSW 17.3 mph 27.6 mph 0.01 in Rain Light Rain
12:08 PM 46.4 °F 40.1 °F 44.6 °F 93% 29.54 in 2.0 mi West 15.0 mph 27.6 mph 0.00 in   Overcast
12:27 PM 44.6 °F 37.4 °F 44.6 °F 100% 29.54 in 1.5 mi West 16.1 mph 26.5 mph 0.00 in Rain Light Rain
12:42 PM 44.6 °F 37.2 °F 44.6 °F 100% 29.56 in 2.5 mi West 17.3 mph 23.0 mph 0.00 in Rain Light Rain
12:50 PM 44.6 °F 37.4 °F 42.8 °F 93% 29.56 in 4.0 mi West 16.1 mph 23.0 mph 0.00 in Rain Light Rain
12:55 PM 44.1 °F 36.8 °F 42.1 °F 93% 29.59 in 7.0 mi West 16.1 mph 24.2 mph 0.00 in   Overcast
1:20 PM 42.8 °F 35.1 °F 41.0 °F 93% 29.58 in 10.0 mi West 16.1 mph 25.3 mph N/A   Overcast
1:55 PM 42.1 °F 34.5 °F 39.0 °F 89% 29.61 in 10.0 mi West 15.0 mph 27.6 mph N/A   Overcast
2:55 PM 42.1 °F 34.9 °F 37.9 °F 85% 29.64 in 10.0 mi West 13.8 mph 27.6 mph N/A   Overcast
3:12 PM 42.8 °F 35.1 °F 37.4 °F 81% 29.62 in 10.0 mi West 16.1 mph 25.3 mph N/A   Overcast
3:55 PM 43.0 °F 35.7 °F 37.0 °F 80% 29.65 in 10.0 mi West 15.0 mph 24.2 mph N/A   Overcast
4:55 PM 42.1 °F 33.9 °F 37.0 °F 82% 29.68 in 10.0 mi West 17.3 mph 27.6 mph 0.00 in   Overcast
5:22 PM 42.8 °F 34.5 °F 35.6 °F 76% 29.67 in 10.0 mi West 18.4 mph 26.5 mph 0.00 in   Overcast
5:55 PM 39.9 °F 30.8 °F 35.1 °F 83% 29.72 in 8.0 mi West 18.4 mph 27.6 mph 0.00 in Rain Light Rain
6:22 PM 39.2 °F 29.6 °F 33.8 °F 81% 29.71 in 10.0 mi West 19.6 mph 26.5 mph 0.00 in   Overcast
6:31 PM 39.2 °F 29.8 °F 33.8 °F 81% 29.72 in 10.0 mi WNW 18.4 mph 25.3 mph 0.00 in   Overcast
6:55 PM 37.9 °F 30.0 °F 32.0 °F 79% 29.75 in 10.0 mi West 12.7 mph 27.6 mph 0.00 in   Overcast
7:55 PM 37.0 °F 26.4 °F 32.0 °F 82% 29.79 in 10.0 mi West 20.7 mph 29.9 mph N/A   Overcast
8:55 PM 37.0 °F 28.5 °F 30.9 °F 79% 29.81 in 10.0 mi West 13.8 mph 23.0 mph N/A   Overcast
9:55 PM 36.0 °F 26.0 °F 30.0 °F 79% 29.81 in 10.0 mi West 17.3 mph 25.3 mph N/A   Overcast
10:55 PM 36.0 °F 27.1 °F 30.0 °F 79% 29.81 in 10.0 mi West 13.8 mph - N/A   Overcast
11:18 PM 35.6 °F 27.1 °F 28.4 °F 75% 29.78 in 10.0 mi West 12.7 mph 23.0 mph N/A   Overcast
11:50 PM 35.6 °F 25.2 °F 28.4 °F 75% 29.77 in 10.0 mi West 18.4 mph 24.2 mph N/A   Overcast
11:55 PM 36.0 °F 27.1 °F 28.9 °F 76% 29.80 in 10.0 mi West 13.8 mph 24.2 mph N/A   Overcast